Location: Invercargill
(46.4000°S, 168.3500°E)
Time: 18:15:29
(UTC+12:00)

Meteor 2-21 Rocket - Pass Details

Date: 14 May 2021
Orbit: 936 x 967 km, 82.5° (Epoch: 14 June)

Event Time Altitude Azimuth Distance (km) Brightness Sun altitude
Rises 19:32:02 0° 7° (N) 3,648 7.5 -21.8°
Reaches altitude 10° 19:34:34 10° 10° (N) 2,711 6.8 -22.2°
Maximum altitude 19:40:38 58° 87° (E) 1,135 4.5 -23.3°
Drops below altitude 10° 19:46:47 10° 164° (SSE) 2,741 6.7 -24.3°
Sets 19:49:21 0° 167° (SSE) 3,692 7.4 -24.8°
